Location: Unspecified
(0.0000°N, 0.0000°E)
Time: 01:48:03
(UTC+02:00)

ASC 2 Rocket - Visible Passes

Search period start: 03 September 2014 00:00
Search period end: 13 September 2014 00:00
Orbit: 555 x 2350 km, 24.0° (Epoch: 01 September)

Date Brightness Start Highest point End Pass type
(mag) Time Alt. Az. Time Alt. Az. Time Alt. Az.
03 Sep 7.0 03:51:33 18° E 03:51:33 18° E 03:54:40 10° E visible
03 Sep 5.1 05:46:26 63° WSW 05:48:48 87° SSE 06:02:38 10° ENE visible
03 Sep 5.7 20:25:49 10° SW 20:26:39 10° SSW 20:27:27 10° SSW visible
04 Sep 5.8 04:45:03 49° E 04:45:03 49° E 04:54:14 10° ENE visible
04 Sep 5.7 06:39:56 27° W 06:46:47 61° NNW 07:00:42 10° NE visible
05 Sep 7.1 03:43:40 15° E 03:43:40 15° E 03:45:33 10° E visible
05 Sep 5.0 05:38:33 72° WNW 05:39:31 77° NNW 05:52:45 10° ENE visible
06 Sep 6.0 04:37:10 41° ENE 04:37:10 41° ENE 04:44:34 10° ENE visible
06 Sep 5.8 06:32:03 28° WNW 06:37:37 49° NNW 06:50:39 10° NE visible
07 Sep 7.3 03:35:45 12° ENE 03:35:45 12° ENE 03:36:16 10° ENE visible
07 Sep 5.2 05:30:38 60° NNW 05:30:38 60° NNW 05:42:45 10° NE visible
07 Sep 6.5 07:26:36 10° WNW 07:36:20 33° NNW 07:48:25 10° NE visible
08 Sep 6.3 04:29:13 32° ENE 04:29:13 32° ENE 04:34:47 10° ENE visible
08 Sep 5.8 06:24:06 27° WNW 06:28:40 39° NNW 06:40:31 10° NE visible
09 Sep 5.5 05:22:40 45° N 05:22:40 45° N 05:32:38 10° NE visible
09 Sep 6.6 07:18:46 10° WNW 07:27:32 28° N 07:38:27 10° NE visible
10 Sep 6.6 04:21:14 23° NE 04:21:14 23° NE 04:24:53 10° NE visible
10 Sep 6.0 06:16:07 24° NW 06:19:55 30° NNW 06:30:21 10° NE visible
11 Sep 5.9 05:14:39 32° N 05:14:39 32° N 05:22:28 10° NE visible
11 Sep 6.6 07:11:07 10° NW 07:18:54 23° N 07:28:33 10° NE visible
12 Sep 6.9 04:13:12 15° NE 04:13:12 15° NE 04:14:56 10° NE visible
12 Sep 6.1 06:08:04 20° NW 06:11:21 24° N 06:20:10 10° NE visible
